SCP
0 0 0 0 -0 -0 -0 -0 0 -0 0 -0 -0 -0 0 0 -0 -0 -0 -0 -0 -0 -0 -0 -0 -0 -0 -0 -0 -0 -0 -0
0 0 0 0 -0 -0 -0 0 -0 -0 0 -0 -0 0 0 -0 -0 -0 -0 -0 -0 -0 -0 -0 -0 -0 -0 -0 -0 -0 -0 -0
0 0 0 0 0 -0 0 0 -0 -0 -0 0 0 -0 -0 -0 -0 -0 -0 -0 -0 -0 -0 -0 -0 -0 -0 -0 -0 -0 -0 -0
0 0 0 0 0 0 0 0 0 0 0 0 0 0 -0 -0 -0 -0 -0 -0 -0 -0 -0 -0 -0 -0 -0 -0 -0 -0 -0 -0
0 0 0 0 0 0 0 -0 0 0 0 0 0 0 -0 -0 -0 -0 -0 -0 -0 -0 -0 -0 -0 -0 -0 -0 -0 -0 0 0
-0 0 0 0 0 0 0 0 0 0 0 0 0 0 -0 -0 -0 -0 -0 -0 -0 -0 -0 -0 -0 -0 -0 -0 0 0 0 0
-0 -0 0 0 0 0 0 0 0 0 0 -0 -0 -0 -0 -0 -0 -0 -0 -0 -0 -0 0 0 0 0 0 0 0 0 0 0
0 -0 0 0 0 0 0 0 0 0 0 0 -0 -0 -0 -0 -0 -1 -1 -0 -0 -0 -0 0 0 0 0 0 0 0 0 0
0 0 0 0 0 0 0 0 0 0 0 0 -0 -0 -0 -0 -0 -0 -0 -0 -0 -0 0 0 0 0 0 0 0 0 0 0
0 0 0 0 0 0 0 0 0 0 0 -0 0 -0 -0 -0 -0 -0 -0 -0 -0 -0 -0 -0 0 0 0 0 0 0 0 0
0 0 0 0 0 0 0 0 0 -0 0 0 0 0 0 -0 -0 -0 -0 -0 -0 -0 -0 -0 -0 0 0 0 0 0 0 0
0 0 0 0 0 0 0 0 0 -0 0 0 -0 0 0 0 0 -0 -0 -0 -0 -0 -0 -0 0 0 0 0 0 0 0 0
0 0 0 0 0 0 0 0 0 0 0 0 0 0 0 0 0 0 0 0 -0 0 -0 -0 -0 -0 0 0 0 0 0 0
0 0 0 0 0 0 0 0 0 0 0 0 0 0 0 0 0 0 0 0 0 0 0 0 0 0 0 0 0 0 0 0
0 0 0 0 0 0 0 0 0 0 0 0 -0 -0 -0 0 0 1 0 0 0 0 0 0 0 0 0 0 0 0 0 0
0 0 0 0 0 0 0 0 0 0 0 0 0 0 0 0 -0 0 0 0 0 0 0 0 0 0 0 0 0 0 0 0
0 0 0 0 0 0 0 0 0 0 0 0 0 0 0 0 0 0 0 0 0 0 0 0 0 0 0 0 0 0 0 0
0 0 0 0 0 0 0 0 0 0 0 0 0 0 0 0 0 0 0 0 0 0 0 1 1 0 0 0 0 0 1 1
0 0 0 0 0 0 0 0 0 0 0 0 0 0 0 0 0 0 0 0 0 0 0 1 1 2 1 2 2 1 1 1
0 0 0 0 0 0 0 0 0 0 0 0 0 0 0 0 0 0 0 0 0 0 0 0 0 0 -0 0 0 1 1 0
Wind_Speed_500mb
4 5 14 11 20 29 33 5 17 13 5 3 9 15 5 24 62 60 53 48 45 41 37 33 30 28 27 25 24 23 23 22
3 14 3 9 25 30 10 9 9 15 9 5 8 6 11 53 58 59 55 50 46 41 38 35 32 29 27 26 26 24 23 23
7 3 6 10 23 24 0 4 8 5 9 4 3 3 22 56 56 59 54 50 47 43 39 35 32 29 28 28 27 26 24 23
8 2 6 11 28 14 4 3 11 8 10 5 7 14 36 44 52 56 52 51 47 43 39 35 33 31 29 28 27 25 24 23
6 1 4 10 30 24 7 8 6 13 8 3 17 22 39 41 50 56 55 52 49 46 41 35 32 30 30 28 26 24 23 21
4 3 6 15 29 8 4 5 13 13 8 8 24 27 35 42 48 56 58 56 53 49 46 41 37 33 29 26 26 25 24 22
8 3 9 17 18 12 11 6 7 9 8 9 17 31 39 45 53 59 61 62 59 53 47 43 39 35 31 30 28 26 25 24
3 4 11 19 10 19 7 6 2 7 18 17 21 40 46 49 54 61 63 65 60 54 49 45 40 38 37 35 33 31 28 25
4 12 10 12 12 7 6 6 11 9 18 16 29 46 49 48 47 51 58 61 58 56 52 50 47 45 44 41 37 35 30 26
7 6 4 11 13 7 8 8 16 17 16 18 32 50 54 52 47 49 53 52 57 60 59 57 55 50 47 43 40 37 32 30
15 21 12 6 9 6 12 23 22 21 19 20 30 46 51 48 43 43 45 50 60 60 61 61 58 53 50 44 40 36 34 35
11 11 4 9 4 0 20 29 14 18 25 26 34 44 48 51 49 46 41 47 53 55 59 59 57 56 52 48 41 41 40 38
6 8 7 5 11 11 32 22 16 14 25 32 41 43 51 46 54 48 44 47 52 52 55 52 52 56 56 49 48 44 42 40
6 10 6 6 12 17 31 25 20 17 23 35 44 51 51 37 31 47 47 50 49 50 52 51 53 53 56 56 53 48 45 41
5 3 13 7 1 9 25 23 25 26 27 18 29 31 29 41 45 45 49 53 51 46 46 48 56 54 55 55 53 51 46 43
7 1 12 5 1 9 20 21 25 30 35 32 18 14 25 36 40 44 45 50 49 45 42 38 41 45 50 51 47 50 48 40
9 10 7 4 3 14 16 24 31 36 36 34 32 25 19 26 25 28 39 43 47 48 48 41 33 35 38 39 42 43 42 40
14 4 8 6 6 8 21 21 25 25 28 31 26 29 26 17 9 20 22 24 29 36 36 36 28 21 24 31 37 37 38 45
9 7 5 5 7 10 6 13 19 25 23 24 25 30 28 23 24 17 8 11 7 4 6 12 21 8 10 16 21 17 17 23
8 5 11 3 12 9 7 2 15 21 23 21 23 24 27 31 32 29 27 18 13 6 10 17 18 19 34 14 10 18 23 33
Wind_Direction_500mb
53 83 55 350 348 331 329 159 157 134 88 4 337 332 258 172 163 168 172 170 169 167 165 165 166 164 159 154 150 151 147 141
45 86 110 313 335 344 348 139 151 134 116 80 336 329 180 163 166 171 175 174 173 172 169 170 171 169 164 163 160 159 157 153
98 89 286 281 324 338 241 106 109 148 118 81 100 324 163 165 172 177 179 179 178 176 175 174 176 175 171 171 169 165 165 162
124 129 280 303 345 352 121 113 130 123 125 148 171 162 167 175 180 184 187 184 184 183 184 180 181 180 178 176 175 173 172 171
134 112 25 10 348 28 21 181 149 144 136 198 183 180 181 183 187 189 193 193 189 188 188 188 189 189 186 181 181 179 180 175
159 123 53 345 342 314 339 87 157 164 182 165 199 189 192 193 193 195 198 199 197 194 193 194 195 196 195 192 191 188 185 182
134 135 349 335 346 342 337 229 178 185 196 216 209 189 189 194 196 199 202 204 202 199 200 201 202 202 201 201 201 197 195 191
108 182 320 315 308 318 332 333 238 221 259 252 216 195 194 195 199 202 206 207 207 206 206 208 210 211 211 210 209 207 204 200
206 247 265 298 305 298 286 273 264 265 280 239 203 198 201 206 210 211 212 211 211 212 213 214 215 215 216 216 215 214 212 210
292 287 279 285 304 267 235 263 313 301 280 243 205 204 206 211 214 218 222 219 217 217 217 219 218 220 223 223 222 223 221 219
286 299 297 275 243 274 295 307 290 281 253 242 216 213 214 218 223 227 228 221 220 221 222 225 227 227 229 229 230 231 230 230
301 310 322 317 12 248 359 346 310 279 253 244 231 220 220 222 225 228 226 222 224 227 229 233 236 236 236 235 233 233 232 233
50 346 35 324 96 39 344 351 8 312 269 251 246 229 233 242 235 235 235 231 231 234 238 241 245 245 241 242 240 237 237 238
25 334 24 298 127 28 11 30 21 338 284 250 245 243 241 251 255 244 242 243 243 246 251 253 257 253 250 248 247 245 243 244
334 49 338 352 79 26 18 24 18 13 0 280 256 266 269 260 260 255 253 255 256 255 255 257 260 264 257 253 255 253 253 252
267 124 307 285 118 25 23 30 33 28 22 16 345 326 282 273 275 269 261 258 260 264 261 258 260 264 264 264 261 263 262 253
263 246 270 271 204 35 26 35 29 30 27 23 20 15 330 287 279 267 259 257 261 264 261 259 274 278 274 277 275 272 270 263
287 196 244 305 188 81 39 37 37 29 29 29 31 33 35 32 322 276 263 264 266 272 266 260 262 281 295 296 291 283 275 267
274 320 211 253 204 198 113 61 49 42 39 42 50 58 63 62 65 63 25 346 316 273 262 255 248 273 296 290 277 262 267 268
242 263 273 296 278 211 179 74 44 40 38 41 58 81 82 82 76 73 77 69 55 331 283 265 271 282 296 265 20 14 14 341
Wind_Speed_850mb
4 5 14 11 20 29 33 5 17 13 5 3 9 15 5 24 62 60 53 48 45 41 37 33 30 28 27 25 24 23 23 22
3 14 3 9 25 30 10 9 9 15 9 5 8 6 11 53 58 59 55 50 46 41 38 35 32 29 27 26 26 24 23 23
7 3 6 10 23 24 0 4 8 5 9 4 3 3 22 56 56 59 54 50 47 43 39 35 32 29 28 28 27 26 24 23
8 2 6 11 28 14 4 3 11 8 10 5 7 14 36 44 52 56 52 51 47 43 39 35 33 31 29 28 27 25 24 23
6 1 4 10 30 24 7 8 6 13 8 3 17 22 39 41 50 56 55 52 49 46 41 35 32 30 30 28 26 24 23 21
4 3 6 15 29 8 4 5 13 13 8 8 24 27 35 42 48 56 58 56 53 49 46 41 37 33 29 26 26 25 24 22
8 3 9 17 18 12 11 6 7 9 8 9 17 31 39 45 53 59 61 62 59 53 47 43 39 35 31 30 28 26 25 24
3 4 11 19 10 19 7 6 2 7 18 17 21 40 46 49 54 61 63 65 60 54 49 45 40 38 37 35 33 31 28 25
4 12 10 12 12 7 6 6 11 9 18 16 29 46 49 48 47 51 58 61 58 56 52 50 47 45 44 41 37 35 30 26
7 6 4 11 13 7 8 8 16 17 16 18 32 50 54 52 47 49 53 52 57 60 59 57 55 50 47 43 40 37 32 30
15 21 12 6 9 6 12 23 22 21 19 20 30 46 51 48 43 43 45 50 60 60 61 61 58 53 50 44 40 36 34 35
11 11 4 9 4 0 20 29 14 18 25 26 34 44 48 51 49 46 41 47 53 55 59 59 57 56 52 48 41 41 40 38
6 8 7 5 11 11 32 22 16 14 25 32 41 43 51 46 54 48 44 47 52 52 55 52 52 56 56 49 48 44 42 40
6 10 6 6 12 17 31 25 20 17 23 35 44 51 51 37 31 47 47 50 49 50 52 51 53 53 56 56 53 48 45 41
5 3 13 7 1 9 25 23 25 26 27 18 29 31 29 41 45 45 49 53 51 46 46 48 56 54 55 55 53 51 46 43
7 1 12 5 1 9 20 21 25 30 35 32 18 14 25 36 40 44 45 50 49 45 42 38 41 45 50 51 47 50 48 40
9 10 7 4 3 14 16 24 31 36 36 34 32 25 19 26 25 28 39 43 47 48 48 41 33 35 38 39 42 43 42 40
14 4 8 6 6 8 21 21 25 25 28 31 26 29 26 17 9 20 22 24 29 36 36 36 28 21 24 31 37 37 38 45
9 7 5 5 7 10 6 13 19 25 23 24 25 30 28 23 24 17 8 11 7 4 6 12 21 8 10 16 21 17 17 23
8 5 11 3 12 9 7 2 15 21 23 21 23 24 27 31 32 29 27 18 13 6 10 17 18 19 34 14 10 18 23 33
Wind_Direction_850mb
53 83 55 350 348 331 329 159 157 134 88 4 337 332 258 172 163 168 172 170 169 167 165 165 166 164 159 154 150 151 147 141
45 86 110 313 335 344 348 139 151 134 116 80 336 329 180 163 166 171 175 174 173 172 169 170 171 169 164 163 160 159 157 153
98 89 286 281 324 338 241 106 109 148 118 81 100 324 163 165 172 177 179 179 178 176 175 174 176 175 171 171 169 165 165 162
124 129 280 303 345 352 121 113 130 123 125 148 171 162 167 175 180 184 187 184 184 183 184 180 181 180 178 176 175 173 172 171
134 112 25 10 348 28 21 181 149 144 136 198 183 180 181 183 187 189 193 193 189 188 188 188 189 189 186 181 181 179 180 175
159 123 53 345 342 314 339 87 157 164 182 165 199 189 192 193 193 195 198 199 197 194 193 194 195 196 195 192 191 188 185 182
134 135 349 335 346 342 337 229 178 185 196 216 209 189 189 194 196 199 202 204 202 199 200 201 202 202 201 201 201 197 195 191
108 182 320 315 308 318 332 333 238 221 259 252 216 195 194 195 199 202 206 207 207 206 206 208 210 211 211 210 209 207 204 200
206 247 265 298 305 298 286 273 264 265 280 239 203 198 201 206 210 211 212 211 211 212 213 214 215 215 216 216 215 214 212 210
292 287 279 285 304 267 235 263 313 301 280 243 205 204 206 211 214 218 222 219 217 217 217 219 218 220 223 223 222 223 221 219
286 299 297 275 243 274 295 307 290 281 253 242 216 213 214 218 223 227 228 221 220 221 222 225 227 227 229 229 230 231 230 230
301 310 322 317 12 248 359 346 310 279 253 244 231 220 220 222 225 228 226 222 224 227 229 233 236 236 236 235 233 233 232 233
50 346 35 324 96 39 344 351 8 312 269 251 246 229 233 242 235 235 235 231 231 234 238 241 245 245 241 242 240 237 237 238
25 334 24 298 127 28 11 30 21 338 284 250 245 243 241 251 255 244 242 243 243 246 251 253 257 253 250 248 247 245 243 244
334 49 338 352 79 26 18 24 18 13 0 280 256 266 269 260 260 255 253 255 256 255 255 257 260 264 257 253 255 253 253 252
267 124 307 285 118 25 23 30 33 28 22 16 345 326 282 273 275 269 261 258 260 264 261 258 260 264 264 264 261 263 262 253
263 246 270 271 204 35 26 35 29 30 27 23 20 15 330 287 279 267 259 257 261 264 261 259 274 278 274 277 275 272 270 263
287 196 244 305 188 81 39 37 37 29 29 29 31 33 35 32 322 276 263 264 266 272 266 260 262 281 295 296 291 283 275 267
274 320 211 253 204 198 113 61 49 42 39 42 50 58 63 62 65 63 25 346 316 273 262 255 248 273 296 290 277 262 267 268
242 263 273 296 278 211 179 74 44 40 38 41 58 81 82 82 76 73 77 69 55 331 283 265 271 282 296 265 20 14 14 341